Location: Arbon
(43.0005°N, 0.7472°E)
Time: 13:39:07
(UTC+00:00)

SR - Pass Details

Date: 02 December 2020
Orbit: 575 x 880 km, 66.7° (Epoch: 17 January)

Event Time Altitude Azimuth Distance (km) Brightness Sun altitude
Rises 17:02:05 0° 198° (SSW) 2,788 ? -7.2°
Reaches altitude 10° 17:04:17 10° 193° (SSW) 1,912 ? -7.6°
Maximum altitude 17:08:27 55° 116° (ESE) 740 ? -8.3°
Drops below altitude 10° 17:12:56 10° 39° (NE) 2,051 ? -9.0°
Enters shadow 17:13:24 - 38° (NE) 2,235 ? -9.1°
